Location: Cardiff
(53.7833°N, 113.6000°W)
Time: 15:36:09
(UTC+00:00)

RS-15 - Pass Details

Date: 08 December 2023
Orbit: 1893 x 2151 km, 64.8° (Epoch: 27 February)

Event Time Altitude Azimuth Distance (km) Brightness Sun altitude
Exits shadow 13:42:43 19° 299° (WNW) 3,727 8.9 -15.8°
Maximum altitude 13:48:43 30° 256° (WSW) 3,034 8.6 -15.0°
Drops below altitude 10° 13:57:37 10° 201° (SSW) 4,290 9.8 -13.7°
Sets 14:01:22 0° 191° (S) 5,269 10.4 -13.2°
